Time,TemperatureF,DewpointF,PressureIn,WindDirection,WindDirectionDegrees,WindSpeedMPH,WindSpeedGustMPH,Humidity,HourlyPrecipIn,Conditions,Clouds,dailyrainin,SoftwareType,DateUTC
2013-03-17 00:00:00,16.6,14.2,30.00,ENE,77,0.0,0.0,90,0.00,,,0.00,WeatherDisplay:10.37,2013-03-17 04:00:00,
2013-03-17 00:05:00,16.8,14.4,30.00,ENE,77,0.0,0.0,90,0.00,,,0.00,WeatherDisplay:10.37,2013-03-17 04:05:00,
2013-03-17 00:08:00,16.8,14.4,30.00,ENE,77,0.0,0.0,90,0.00,,,0.00,WeatherDisplay:10.37,2013-03-17 04:08:00,
2013-03-17 00:13:00,16.6,14.2,30.00,ENE,77,0.0,0.0,90,0.00,,,0.00,WeatherDisplay:10.37,2013-03-17 04:13:00,
2013-03-17 00:18:00,16.4,14.0,30.00,ENE,76,0.0,0.0,90,0.00,,,0.00,WeatherDisplay:10.37,2013-03-17 04:18:00,
2013-03-17 00:23:00,16.4,14.0,30.00,ENE,76,0.0,0.0,90,0.00,,,0.00,WeatherDisplay:10.37,2013-03-17 04:23:00,
2013-03-17 00:28:00,16.7,14.5,30.00,ENE,76,0.0,0.0,91,0.00,,,0.00,WeatherDisplay:10.37,2013-03-17 04:28:00,
2013-03-17 00:33:00,16.8,14.6,30.00,ENE,76,0.0,0.0,91,0.00,,,0.00,WeatherDisplay:10.37,2013-03-17 04:33:00,
2013-03-17 00:38:00,16.9,14.7,30.00,ENE,76,0.0,0.0,91,0.00,,,0.00,WeatherDisplay:10.37,2013-03-17 04:38:00,
2013-03-17 00:43:00,16.9,14.5,30.00,ENE,76,0.0,0.0,90,0.00,,,0.00,WeatherDisplay:10.37,2013-03-17 04:43:00,
2013-03-17 00:48:00,17.0,14.8,30.00,ENE,76,0.0,0.0,91,0.00,,,0.00,WeatherDisplay:10.37,2013-03-17 04:48:00,
2013-03-17 00:53:00,16.8,14.4,30.01,ENE,76,0.0,0.0,90,0.00,,,0.00,WeatherDisplay:10.37,2013-03-17 04:53:00,
2013-03-17 00:58:00,16.8,14.4,30.01,ENE,76,0.0,0.0,90,0.00,,,0.00,WeatherDisplay:10.37,2013-03-17 04:58:00,
2013-03-17 01:03:00,16.7,14.5,30.01,ENE,77,0.0,0.0,91,0.00,,,0.00,WeatherDisplay:10.37,2013-03-17 05:03:00,
2013-03-17 01:08:00,16.6,14.4,30.01,ENE,77,0.0,0.0,91,0.00,,,0.00,WeatherDisplay:10.37,2013-03-17 05:08:00,
2013-03-17 01:13:00,16.5,14.3,30.01,ENE,76,0.0,0.0,91,0.00,,,0.00,WeatherDisplay:10.37,2013-03-17 05:13:00,
2013-03-17 01:18:00,16.4,14.2,30.01,ENE,76,0.0,0.0,91,0.00,,,0.00,WeatherDisplay:10.37,2013-03-17 05:18:00,
2013-03-17 01:23:00,16.2,14.0,30.01,ENE,76,0.0,0.0,91,0.00,,,0.00,WeatherDisplay:10.37,2013-03-17 05:23:00,
2013-03-17 01:28:00,16.4,14.2,30.01,ENE,77,0.0,0.0,91,0.00,,,0.00,WeatherDisplay:10.37,2013-03-17 05:28:00,
2013-03-17 01:33:00,16.3,14.1,30.01,ENE,76,0.0,0.0,91,0.00,,,0.00,WeatherDisplay:10.37,2013-03-17 05:33:00,
2013-03-17 01:38:00,16.4,14.2,30.02,ENE,76,0.0,0.0,91,0.00,,,0.00,WeatherDisplay:10.37,2013-03-17 05:38:00,
2013-03-17 01:43:00,16.5,14.3,30.01,ENE,76,0.0,0.0,91,0.00,,,0.00,WeatherDisplay:10.37,2013-03-17 05:43:00,
2013-03-17 01:48:00,16.6,14.4,30.02,ENE,77,0.0,0.0,91,0.00,,,0.00,WeatherDisplay:10.37,2013-03-17 05:48:00,
2013-03-17 01:53:00,16.7,14.5,30.02,ENE,76,0.0,0.0,91,0.00,,,0.00,WeatherDisplay:10.37,2013-03-17 05:53:00,
2013-03-17 01:58:00,16.7,14.5,30.03,ENE,76,0.0,0.0,91,0.00,,,0.00,WeatherDisplay:10.37,2013-03-17 05:58:00,
2013-03-17 02:03:00,16.8,14.6,30.03,ENE,77,0.0,0.0,91,0.00,,,0.00,WeatherDisplay:10.37,2013-03-17 06:03:00,
2013-03-17 02:08:00,16.9,14.7,30.03,ENE,77,0.0,0.0,91,0.00,,,0.00,WeatherDisplay:10.37,2013-03-17 06:08:00,
2013-03-17 02:13:00,17.2,15.0,30.04,NW,326,1.1,1.1,91,0.00,,,0.00,WeatherDisplay:10.37,2013-03-17 06:13:00,
2013-03-17 02:18:00,17.5,15.3,30.04,NW,326,0.0,0.0,91,0.00,,,0.00,WeatherDisplay:10.37,2013-03-17 06:18:00,
2013-03-17 02:23:00,17.8,15.6,30.04,NW,312,0.0,0.0,91,0.00,,,0.00,WeatherDisplay:10.37,2013-03-17 06:23:00,
2013-03-17 02:28:00,18.3,16.1,30.04,WNW,288,2.3,2.3,91,0.00,,,0.00,WeatherDisplay:10.37,2013-03-17 06:28:00,
2013-03-17 02:33:00,19.0,16.8,30.04,NNW,338,0.0,0.0,91,0.00,,,0.00,WeatherDisplay:10.37,2013-03-17 06:33:00,
2013-03-17 02:38:00,19.4,17.2,30.04,SE,127,1.1,1.1,91,0.00,,,0.00,WeatherDisplay:10.37,2013-03-17 06:38:00,
2013-03-17 02:43:00,19.6,17.1,30.04,SW,216,0.0,0.0,90,0.00,,,0.00,WeatherDisplay:10.37,2013-03-17 06:43:00,
2013-03-17 02:48:00,19.8,17.3,30.04,WSW,246,2.3,2.3,90,0.00,,,0.00,WeatherDisplay:10.37,2013-03-17 06:48:00,
2013-03-17 02:53:00,20.1,17.4,30.04,SW,236,2.3,2.3,89,0.00,,,0.00,WeatherDisplay:10.37,2013-03-17 06:53:00,
2013-03-17 02:58:00,20.2,17.5,30.04,SSW,212,1.1,0.0,89,0.00,,,0.00,WeatherDisplay:10.37,2013-03-17 06:58:00,
2013-03-17 03:03:00,20.3,17.6,30.04,WSW,245,0.0,0.0,89,0.00,,,0.00,WeatherDisplay:10.37,2013-03-17 07:03:00,
2013-03-17 03:08:00,20.2,17.2,30.04,WSW,250,1.1,0.0,88,0.00,,,0.00,WeatherDisplay:10.37,2013-03-17 07:08:00,
2013-03-17 03:13:00,20.0,17.0,30.04,WSW,251,0.0,0.0,88,0.00,,,0.00,WeatherDisplay:10.37,2013-03-17 07:13:00,
2013-03-17 03:18:00,19.7,16.7,30.03,SSE,166,0.0,0.0,88,0.00,,,0.00,WeatherDisplay:10.37,2013-03-17 07:18:00,
2013-03-17 03:23:00,19.5,16.8,30.03,SSE,166,0.0,0.0,89,0.00,,,0.00,WeatherDisplay:10.37,2013-03-17 07:23:00,
2013-03-17 03:29:00,19.2,16.5,30.03,SSE,166,0.0,0.0,89,0.00,,,0.00,WeatherDisplay:10.37,2013-03-17 07:29:00,
2013-03-17 03:42:00,18.8,16.4,30.04,SSE,166,0.0,0.0,90,0.00,,,0.00,WeatherDisplay:10.37,2013-03-17 07:42:00,
2013-03-17 03:47:00,18.9,16.5,30.04,SSW,200,0.0,0.0,90,0.00,,,0.00,WeatherDisplay:10.37,2013-03-17 07:47:00,
2013-03-17 03:52:00,18.9,16.5,30.04,SW,218,0.0,0.0,90,0.00,,,0.00,WeatherDisplay:10.37,2013-03-17 07:52:00,
2013-03-17 03:57:00,19.2,16.7,30.04,WSW,240,1.1,0.0,90,0.00,,,0.00,WeatherDisplay:10.37,2013-03-17 07:57:00,
2013-03-17 04:02:00,20.0,17.5,30.04,West,262,1.0,0.0,90,0.00,,,0.00,WeatherDisplay:10.37,2013-03-17 08:02:00,
2013-03-17 04:07:00,20.6,17.9,30.04,WSW,248,0.0,0.0,89,0.00,,,0.00,WeatherDisplay:10.37,2013-03-17 08:07:00,
2013-03-17 04:41:00,22.0,19.0,30.06,West,274,2.3,2.3,88,0.00,,,0.00,WeatherDisplay:10.37,2013-03-17 08:41:00,
2013-03-17 04:46:00,22.1,19.1,30.06,West,266,2.3,2.3,88,0.00,,,0.00,WeatherDisplay:10.37,2013-03-17 08:46:00,
2013-03-17 04:51:00,22.2,19.5,30.05,West,264,0.0,0.2,89,0.00,,,0.00,WeatherDisplay:10.37,2013-03-17 08:51:00,
2013-03-17 04:56:00,22.3,19.6,30.05,West,273,0.0,0.0,89,0.00,,,0.00,WeatherDisplay:10.37,2013-03-17 08:56:00,
2013-03-17 05:01:00,22.3,19.6,30.05,WNW,290,2.0,2.0,89,0.00,,,0.00,WeatherDisplay:10.37,2013-03-17 09:01:00,
2013-03-17 05:06:00,22.4,19.6,30.06,WSW,253,0.0,0.0,89,0.00,,,0.00,WeatherDisplay:10.37,2013-03-17 09:06:00,
2013-03-17 05:11:00,22.5,20.0,30.06,WNW,289,2.3,2.3,90,0.00,,,0.00,WeatherDisplay:10.37,2013-03-17 09:11:00,
2013-03-17 05:16:00,22.6,20.1,30.07,West,260,0.0,0.0,90,0.00,,,0.00,WeatherDisplay:10.37,2013-03-17 09:16:00,
2013-03-17 05:21:00,22.7,20.5,30.07,NNW,329,1.1,1.1,91,0.00,,,0.00,WeatherDisplay:10.37,2013-03-17 09:21:00,
2013-03-17 05:26:00,22.8,20.6,30.08,WNW,295,3.5,3.5,91,0.00,,,0.00,WeatherDisplay:10.37,2013-03-17 09:26:00,
2013-03-17 05:31:00,23.1,20.9,30.08,NNW,333,3.5,3.5,91,0.00,,,0.00,WeatherDisplay:10.37,2013-03-17 09:31:00,
2013-03-17 05:36:00,23.2,21.0,30.08,West,276,1.1,1.1,91,0.00,,,0.00,WeatherDisplay:10.37,2013-03-17 09:36:00,
2013-03-17 05:41:00,23.4,21.2,30.08,West,275,2.3,2.3,91,0.00,,,0.00,WeatherDisplay:10.37,2013-03-17 09:41:00,
2013-03-17 05:46:00,23.6,20.8,30.08,NW,323,5.8,5.8,89,0.00,,,0.00,WeatherDisplay:10.37,2013-03-17 09:46:00,
2013-03-17 05:51:00,23.9,20.0,30.08,NNW,348,3.5,3.5,85,0.00,,,0.00,WeatherDisplay:10.37,2013-03-17 09:51:00,
2013-03-17 05:56:00,24.2,20.1,30.09,SW,235,3.5,3.5,84,0.00,,,0.00,WeatherDisplay:10.37,2013-03-17 09:56:00,
2013-03-17 06:02:00,24.3,19.9,30.09,NNW,328,4.0,4.0,83,0.00,CLR,,0.00,WeatherDisplay:10.37,2013-03-17 10:02:00,
2013-03-17 06:07:00,24.5,19.2,30.09,WSW,246,4.6,4.6,80,0.00,CLR,,0.00,WeatherDisplay:10.37,2013-03-17 10:07:00,
2013-03-17 06:12:00,24.6,19.0,30.09,WNW,289,3.5,3.5,79,0.00,CLR,,0.00,WeatherDisplay:10.37,2013-03-17 10:12:00,
2013-03-17 06:17:00,24.6,19.0,30.10,West,263,8.0,8.0,79,0.00,CLR,,0.00,WeatherDisplay:10.37,2013-03-17 10:17:00,
2013-03-17 06:22:00,24.7,18.5,30.10,WNW,288,2.3,2.3,77,0.00,CLR,,0.00,WeatherDisplay:10.37,2013-03-17 10:22:00,
2013-03-17 06:27:00,24.7,17.9,30.10,WNW,293,9.2,9.2,75,0.00,CLR,,0.00,WeatherDisplay:10.37,2013-03-17 10:27:00,
2013-03-17 06:32:00,24.8,18.3,30.10,ESE,113,2.3,2.3,76,0.00,CLR,,0.00,WeatherDisplay:10.37,2013-03-17 10:32:00,
2013-03-17 06:37:00,24.8,18.3,30.10,NNW,333,3.5,0.0,76,0.00,CLR,,0.00,WeatherDisplay:10.37,2013-03-17 10:37:00,
2013-03-17 06:42:00,24.8,18.0,30.10,West,281,5.0,5.0,75,0.00,CLR,,0.00,WeatherDisplay:10.37,2013-03-17 10:42:00,
2013-03-17 06:47:00,24.8,18.3,30.10,WNW,302,9.2,9.2,76,0.00,CLR,,0.00,WeatherDisplay:10.37,2013-03-17 10:47:00,
2013-03-17 06:52:00,24.8,18.6,30.11,West,259,4.6,4.6,77,0.00,CLR,,0.00,WeatherDisplay:10.37,2013-03-17 10:52:00,
2013-03-17 06:57:00,24.8,18.6,30.11,WNW,283,4.6,4.6,77,0.00,CLR,,0.00,WeatherDisplay:10.37,2013-03-17 10:57:00,
2013-03-17 07:02:00,24.7,19.1,30.11,NE,40,1.1,1.1,79,0.00,CLR,,0.00,WeatherDisplay:10.37,2013-03-17 11:02:00,
2013-03-17 07:07:00,24.7,18.8,30.11,ENE,76,1.1,1.1,78,0.00,CLR,,0.00,WeatherDisplay:10.37,2013-03-17 11:07:00,
2013-03-17 07:12:00,24.7,18.5,30.11,WSW,243,2.3,2.3,77,0.00,CLR,,0.00,WeatherDisplay:10.37,2013-03-17 11:12:00,
2013-03-17 07:17:00,24.7,19.1,30.12,WNW,287,0.0,0.0,79,0.00,CLR,,0.00,WeatherDisplay:10.37,2013-03-17 11:17:00,
2013-03-17 07:22:00,24.7,18.2,30.12,ENE,77,3.5,3.5,76,0.00,CLR,,0.00,WeatherDisplay:10.37,2013-03-17 11:22:00,
2013-03-17 07:27:00,24.7,18.5,30.12,WSW,257,5.8,5.8,77,0.00,CLR,,0.00,WeatherDisplay:10.37,2013-03-17 11:27:00,
2013-03-17 07:32:00,24.8,18.6,30.12,NNW,331,2.3,2.3,77,0.00,CLR,,0.00,WeatherDisplay:10.37,2013-03-17 11:32:00,
2013-03-17 07:37:00,24.8,18.0,30.13,SW,229,1.1,0.0,75,0.00,CLR,,0.00,WeatherDisplay:10.37,2013-03-17 11:37:00,
2013-03-17 07:42:00,24.8,18.3,30.13,WNW,300,2.3,2.3,76,0.00,CLR,,0.00,WeatherDisplay:10.37,2013-03-17 11:42:00,
2013-03-17 07:47:00,24.8,18.6,30.13,SW,222,0.0,0.0,77,0.00,CLR,,0.00,WeatherDisplay:10.37,2013-03-17 11:47:00,
2013-03-17 07:52:00,24.8,17.7,30.14,NE,56,4.6,4.6,74,0.00,CLR,,0.00,WeatherDisplay:10.37,2013-03-17 11:52:00,
2013-03-17 07:57:00,24.7,17.9,30.14,WNW,287,1.1,1.1,75,0.00,CLR,,0.00,WeatherDisplay:10.37,2013-03-17 11:57:00,
2013-03-17 08:02:00,24.7,18.2,30.14,ENE,57,3.5,3.5,76,0.00,CLR,,0.00,WeatherDisplay:10.37,2013-03-17 12:02:00,
2013-03-17 08:07:00,24.8,18.6,30.14,NNW,347,1.1,0.0,77,0.00,CLR,,0.00,WeatherDisplay:10.37,2013-03-17 12:07:00,
2013-03-17 08:12:00,25.0,18.5,30.15,NW,318,1.1,1.1,76,0.00,CLR,,0.00,WeatherDisplay:10.37,2013-03-17 12:12:00,
2013-03-17 08:17:00,25.0,17.9,30.15,NW,326,0.0,0.0,74,0.00,CLR,,0.00,WeatherDisplay:10.37,2013-03-17 12:17:00,
2013-03-17 08:22:00,25.1,18.0,30.15,SE,127,1.1,1.1,74,0.00,CLR,,0.00,WeatherDisplay:10.37,2013-03-17 12:22:00,
2013-03-17 08:27:00,25.2,18.1,30.15,WNW,294,3.0,3.0,74,0.00,CLR,,0.00,WeatherDisplay:10.37,2013-03-17 12:27:00,
2013-03-17 08:32:00,25.4,17.9,30.15,West,267,3.5,3.5,73,0.00,CLR,,0.00,WeatherDisplay:10.37,2013-03-17 12:32:00,
2013-03-17 08:37:00,25.6,18.5,30.16,ENE,78,1.1,1.1,74,0.00,CLR,,0.00,WeatherDisplay:10.37,2013-03-17 12:37:00,
2013-03-17 08:42:00,25.8,19.0,30.16,NE,46,1.1,1.1,75,0.00,CLR,,0.00,WeatherDisplay:10.37,2013-03-17 12:42:00,
2013-03-17 08:47:00,25.9,18.4,30.16,North,11,2.3,2.3,73,0.00,CLR,,0.00,WeatherDisplay:10.37,2013-03-17 12:47:00,
2013-03-17 08:52:00,26.0,18.5,30.16,NNE,21,3.5,0.0,73,0.00,CLR,,0.00,WeatherDisplay:10.37,2013-03-17 12:52:00,
2013-03-17 08:57:00,26.2,18.7,30.17,SE,141,2.3,2.3,73,0.00,CLR,,0.00,WeatherDisplay:10.37,2013-03-17 12:57:00,
2013-03-17 09:02:00,26.3,19.1,30.17,ENE,75,2.3,0.0,74,0.00,CLR,,0.00,WeatherDisplay:10.37,2013-03-17 13:02:00,
2013-03-17 09:07:00,26.5,19.0,30.17,NE,34,2.3,2.3,73,0.00,CLR,,0.00,WeatherDisplay:10.37,2013-03-17 13:07:00,
2013-03-17 09:13:00,26.6,18.8,30.17,NW,321,3.5,3.5,72,0.00,CLR,,0.00,WeatherDisplay:10.37,2013-03-17 13:13:00,
2013-03-17 09:17:00,26.7,18.9,30.17,SSW,211,3.5,3.5,72,0.00,CLR,,0.00,WeatherDisplay:10.37,2013-03-17 13:17:00,
2013-03-17 09:23:00,26.6,18.5,30.18,ENE,73,4.6,4.6,71,0.00,CLR,,0.00,WeatherDisplay:10.37,2013-03-17 13:23:00,
2013-03-17 09:28:00,26.7,18.9,30.18,WSW,242,3.5,3.5,72,0.00,CLR,,0.00,WeatherDisplay:10.37,2013-03-17 13:28:00,
2013-03-17 09:33:00,26.7,18.9,30.19,East,85,3.5,3.5,72,0.00,CLR,,0.00,WeatherDisplay:10.37,2013-03-17 13:33:00,
2013-03-17 09:38:00,26.9,18.7,30.19,WSW,245,4.6,4.6,71,0.00,CLR,,0.00,WeatherDisplay:10.37,2013-03-17 13:38:00,
2013-03-17 09:43:00,27.2,19.0,30.19,East,84,1.1,1.1,71,0.00,CLR,,0.00,WeatherDisplay:10.37,2013-03-17 13:43:00,
2013-03-17 09:48:00,27.5,18.3,30.19,NE,37,3.5,3.5,68,0.00,CLR,,0.00,WeatherDisplay:10.37,2013-03-17 13:48:00,
2013-03-17 09:53:00,27.5,17.3,30.19,ESE,117,2.3,2.3,65,0.00,CLR,,0.00,WeatherDisplay:10.37,2013-03-17 13:53:00,
2013-03-17 09:58:00,27.7,17.1,30.19,ENE,60,2.3,2.3,64,0.00,CLR,,0.00,WeatherDisplay:10.37,2013-03-17 13:58:00,
2013-03-17 10:03:00,27.5,17.6,30.19,SW,231,2.3,2.6,66,0.00,CLR,,0.00,WeatherDisplay:10.37,2013-03-17 14:03:00,
2013-03-17 10:08:00,27.8,19.3,30.20,NE,34,1.1,0.0,70,0.00,CLR,,0.00,WeatherDisplay:10.37,2013-03-17 14:08:00,
2013-03-17 10:13:00,28.5,19.3,30.20,ENE,65,0.0,0.2,68,0.00,CLR,,0.00,WeatherDisplay:10.37,2013-03-17 14:13:00,
2013-03-17 10:18:00,28.6,18.7,30.20,SSW,208,2.3,2.3,66,0.00,CLR,,0.00,WeatherDisplay:10.37,2013-03-17 14:18:00,
2013-03-17 10:23:00,28.3,18.0,30.20,NE,40,3.5,3.5,65,0.00,CLR,,0.00,WeatherDisplay:10.37,2013-03-17 14:23:00,
2013-03-17 10:28:00,28.2,17.6,30.20,ENE,58,4.6,4.6,64,0.00,CLR,,0.00,WeatherDisplay:10.37,2013-03-17 14:28:00,
2013-03-17 10:33:00,27.7,17.1,30.21,ENE,66,3.5,3.5,64,0.00,CLR,,0.00,WeatherDisplay:10.37,2013-03-17 14:33:00,
2013-03-17 10:38:00,27.7,17.5,30.21,ENE,77,1.1,1.1,65,0.00,CLR,,0.00,WeatherDisplay:10.37,2013-03-17 14:38:00,
2013-03-17 10:43:00,27.8,17.6,30.21,NNW,329,2.3,2.3,65,0.00,CLR,,0.00,WeatherDisplay:10.37,2013-03-17 14:43:00,
2013-03-17 10:48:00,28.3,19.1,30.21,NE,50,1.1,0.0,68,0.00,CLR,,0.00,WeatherDisplay:10.37,2013-03-17 14:48:00,
2013-03-17 10:53:00,28.5,17.9,30.21,ESE,105,3.5,3.5,64,0.00,CLR,,0.00,WeatherDisplay:10.37,2013-03-17 14:53:00,
2013-03-17 10:58:00,28.8,18.1,30.21,ENE,58,3.5,3.5,64,0.00,CLR,,0.00,WeatherDisplay:10.37,2013-03-17 14:58:00,
2013-03-17 11:03:00,29.0,18.7,30.22,WSW,243,5.8,5.8,65,0.00,CLR,,0.00,WeatherDisplay:10.37,2013-03-17 15:03:00,
2013-03-17 11:08:00,28.9,17.9,30.22,ESE,117,5.0,5.0,63,0.00,CLR,,0.00,WeatherDisplay:10.37,2013-03-17 15:08:00,
2013-03-17 11:13:00,28.7,18.4,30.22,West,269,1.1,1.1,65,0.00,CLR,,0.00,WeatherDisplay:10.37,2013-03-17 15:13:00,
2013-03-17 11:18:00,29.1,18.1,30.22,West,259,3.5,3.5,63,0.00,CLR,,0.00,WeatherDisplay:10.37,2013-03-17 15:18:00,
2013-03-17 11:24:00,29.2,18.9,30.22,ESE,115,3.5,3.5,65,0.00,CLR,,0.00,WeatherDisplay:10.37,2013-03-17 15:24:00,
2013-03-17 11:29:00,29.0,18.0,30.22,East,82,3.5,3.5,63,0.00,CLR,,0.00,WeatherDisplay:10.37,2013-03-17 15:29:00,
2013-03-17 11:34:00,29.4,19.4,30.22,NNE,21,3.5,3.5,66,0.00,CLR,,0.00,WeatherDisplay:10.37,2013-03-17 15:34:00,
2013-03-17 11:39:00,29.6,18.2,30.22,NE,44,4.6,4.6,62,0.00,CLR,,0.00,WeatherDisplay:10.37,2013-03-17 15:39:00,
2013-03-17 11:44:00,30.0,18.9,30.22,SSE,165,0.0,0.2,63,0.00,CLR,,0.00,WeatherDisplay:10.37,2013-03-17 15:44:00,
2013-03-17 11:49:00,29.9,18.8,30.23,SSE,165,1.1,1.1,63,0.00,CLR,,0.00,WeatherDisplay:10.37,2013-03-17 15:49:00,
2013-03-17 11:54:00,30.0,19.3,30.23,West,263,3.5,3.5,64,0.00,CLR,,0.00,WeatherDisplay:10.37,2013-03-17 15:54:00,
2013-03-17 11:59:00,29.5,17.3,30.23,NE,49,3.5,3.5,60,0.00,CLR,,0.00,WeatherDisplay:10.37,2013-03-17 15:59:00,
2013-03-17 12:04:00,29.2,17.4,30.24,WNW,283,6.9,6.9,61,0.00,CLR,,0.00,WeatherDisplay:10.37,2013-03-17 16:04:00,
2013-03-17 12:09:00,29.1,17.7,30.24,West,268,3.5,3.5,62,0.00,CLR,,0.00,WeatherDisplay:10.37,2013-03-17 16:09:00,
2013-03-17 12:14:00,29.3,17.5,30.24,WNW,295,3.5,3.5,61,0.00,CLR,,0.00,WeatherDisplay:10.37,2013-03-17 16:14:00,
2013-03-17 12:19:00,29.2,17.4,30.25,SW,225,5.0,5.0,61,0.00,CLR,,0.00,WeatherDisplay:10.37,2013-03-17 16:19:00,
2013-03-17 12:24:00,29.1,17.7,30.25,ENE,71,3.5,3.5,62,0.00,CLR,,0.00,WeatherDisplay:10.37,2013-03-17 16:24:00,
2013-03-17 12:29:00,29.1,17.3,30.25,WNW,282,2.3,2.3,61,0.00,CLR,,0.00,WeatherDisplay:10.37,2013-03-17 16:29:00,
2013-03-17 12:34:00,28.9,17.5,30.25,WNW,302,2.3,2.3,62,0.00,CLR,,0.00,WeatherDisplay:10.37,2013-03-17 16:34:00,
2013-03-17 12:40:00,28.7,16.6,30.26,NNE,29,5.8,5.8,60,0.00,CLR,,0.00,WeatherDisplay:10.37,2013-03-17 16:40:00,
2013-03-17 12:45:00,28.8,17.8,30.26,SE,142,3.5,3.5,63,0.00,CLR,,0.00,WeatherDisplay:10.37,2013-03-17 16:45:00,
2013-03-17 12:50:00,28.8,17.4,30.26,ENE,77,3.5,3.5,62,0.00,CLR,,0.00,WeatherDisplay:10.37,2013-03-17 16:50:00,
2013-03-17 12:55:00,28.8,18.1,30.26,NW,315,3.5,3.5,64,0.00,CLR,,0.00,WeatherDisplay:10.37,2013-03-17 16:55:00,
2013-03-17 13:00:00,28.5,17.5,30.26,SE,124,5.8,5.8,63,0.00,CLR,,0.00,WeatherDisplay:10.37,2013-03-17 17:00:00,
2013-03-17 13:05:00,29.0,19.1,30.26,SW,219,2.3,2.3,66,0.00,CLR,,0.00,WeatherDisplay:10.37,2013-03-17 17:05:00,
2013-03-17 13:10:00,29.4,18.0,30.25,East,100,2.0,2.0,62,0.00,CLR,,0.00,WeatherDisplay:10.37,2013-03-17 17:10:00,
2013-03-17 13:15:00,30.5,20.8,30.25,ESE,113,5.8,5.8,67,0.00,CLR,,0.00,WeatherDisplay:10.37,2013-03-17 17:15:00,
2013-03-17 13:20:00,30.4,18.9,30.26,WNW,288,2.3,2.3,62,0.00,CLR,,0.00,WeatherDisplay:10.37,2013-03-17 17:20:00,
2013-03-17 13:25:00,30.3,18.8,30.26,SE,134,3.5,3.5,62,0.00,CLR,,0.00,WeatherDisplay:10.37,2013-03-17 17:25:00,
2013-03-17 13:30:00,30.4,18.5,30.26,WNW,283,5.8,5.8,61,0.00,CLR,,0.00,WeatherDisplay:10.37,2013-03-17 17:30:00,
2013-03-17 13:35:00,30.7,18.8,30.26,WSW,248,6.9,6.9,61,0.00,CLR,,0.00,WeatherDisplay:10.37,2013-03-17 17:35:00,
2013-03-17 13:40:00,30.3,17.7,30.26,NE,46,2.3,2.3,59,0.00,CLR,,0.00,WeatherDisplay:10.37,2013-03-17 17:40:00,
2013-03-17 13:45:00,30.2,18.7,30.26,WSW,249,3.5,3.5,62,0.00,CLR,,0.00,WeatherDisplay:10.37,2013-03-17 17:45:00,
2013-03-17 13:50:00,30.6,20.2,30.26,West,263,4.6,4.6,65,0.00,CLR,,0.00,WeatherDisplay:10.37,2013-03-17 17:50:00,
2013-03-17 13:55:00,30.4,18.9,30.26,NW,304,4.6,4.6,62,0.00,CLR,,0.00,WeatherDisplay:10.37,2013-03-17 17:55:00,
2013-03-17 14:00:00,29.7,17.9,30.26,West,267,4.6,4.6,61,0.00,CLR,,0.00,WeatherDisplay:10.37,2013-03-17 18:00:00,
2013-03-17 14:05:00,29.6,18.9,30.26,NE,49,3.5,3.5,64,0.00,CLR,,0.00,WeatherDisplay:10.37,2013-03-17 18:05:00,
2013-03-17 14:10:00,29.6,18.2,30.25,WNW,292,3.5,3.5,62,0.00,CLR,,0.00,WeatherDisplay:10.37,2013-03-17 18:10:00,
2013-03-17 14:15:00,29.6,17.8,30.26,ENE,68,8.1,8.1,61,0.00,CLR,,0.00,WeatherDisplay:10.37,2013-03-17 18:15:00,
2013-03-17 14:20:00,30.2,19.5,30.26,WNW,290,1.1,1.1,64,0.00,CLR,,0.00,WeatherDisplay:10.37,2013-03-17 18:20:00,
2013-03-17 14:25:00,30.5,20.5,30.26,SW,234,1.1,1.1,66,0.00,CLR,,0.00,WeatherDisplay:10.37,2013-03-17 18:25:00,
2013-03-17 14:30:00,30.2,19.8,30.26,WSW,238,2.3,2.3,65,0.00,CLR,,0.00,WeatherDisplay:10.37,2013-03-17 18:30:00,
2013-03-17 14:35:00,29.9,19.9,30.26,SW,228,3.5,3.5,66,0.00,CLR,,0.00,WeatherDisplay:10.37,2013-03-17 18:35:00,
2013-03-17 14:40:00,30.1,17.9,30.25,WSW,255,5.0,5.0,60,0.00,CLR,,0.00,WeatherDisplay:10.37,2013-03-17 18:40:00,
2013-03-17 14:45:00,29.9,18.8,30.25,NNW,333,4.0,4.0,63,0.00,CLR,,0.00,WeatherDisplay:10.37,2013-03-17 18:45:00,
2013-03-17 14:50:00,30.0,17.4,30.26,WSW,255,8.0,8.0,59,0.00,CLR,,0.00,WeatherDisplay:10.37,2013-03-17 18:50:00,
2013-03-17 14:55:00,29.6,17.4,30.25,NW,319,8.1,8.1,60,0.00,CLR,,0.00,WeatherDisplay:10.37,2013-03-17 18:55:00,
2013-03-17 15:00:00,29.2,17.4,30.25,North,354,2.3,2.3,61,0.00,CLR,,0.00,WeatherDisplay:10.37,2013-03-17 19:00:00,
2013-03-17 15:05:00,28.9,17.1,30.25,ENE,72,0.0,0.0,61,0.00,CLR,,0.00,WeatherDisplay:10.37,2013-03-17 19:05:00,
2013-03-17 15:10:00,29.2,17.8,30.26,WSW,249,3.5,3.5,62,0.00,CLR,,0.00,WeatherDisplay:10.37,2013-03-17 19:10:00,
2013-03-17 15:15:00,29.4,18.0,30.26,WSW,253,4.6,4.6,62,0.00,CLR,,0.00,WeatherDisplay:10.37,2013-03-17 19:15:00,
2013-03-17 15:20:00,29.8,18.0,30.26,East,82,3.0,3.0,61,0.00,CLR,,0.00,WeatherDisplay:10.37,2013-03-17 19:20:00,
2013-03-17 15:25:00,29.6,17.4,30.25,NW,312,3.5,3.5,60,0.00,CLR,,0.00,WeatherDisplay:10.37,2013-03-17 19:25:00,
2013-03-17 15:30:00,30.0,17.4,30.26,West,264,5.8,5.8,59,0.00,CLR,,0.00,WeatherDisplay:10.37,2013-03-17 19:30:00,
2013-03-17 15:35:00,29.8,17.2,30.26,NE,37,2.3,2.3,59,0.00,CLR,,0.00,WeatherDisplay:10.37,2013-03-17 19:35:00,
2013-03-17 15:40:00,30.0,18.2,30.26,North,356,3.5,3.5,61,0.00,CLR,,0.00,WeatherDisplay:10.37,2013-03-17 19:40:00,
2013-03-17 15:45:00,30.1,18.3,30.26,NNW,331,3.0,3.0,61,0.00,CLR,,0.00,WeatherDisplay:10.37,2013-03-17 19:45:00,
2013-03-17 15:50:00,29.8,18.4,30.26,SE,129,3.5,3.5,62,0.00,CLR,,0.00,WeatherDisplay:10.37,2013-03-17 19:50:00,
2013-03-17 15:55:00,30.1,16.7,30.27,WNW,289,4.6,4.6,57,0.00,CLR,,0.00,WeatherDisplay:10.37,2013-03-17 19:55:00,
2013-03-17 16:00:00,29.4,16.4,30.27,North,6,5.8,5.8,58,0.00,CLR,,0.00,WeatherDisplay:10.37,2013-03-17 20:00:00,
2013-03-17 16:05:00,29.6,18.2,30.27,West,263,5.0,5.0,62,0.00,CLR,,0.00,WeatherDisplay:10.37,2013-03-17 20:05:00,
2013-03-17 16:10:00,29.8,18.0,30.27,WSW,239,2.0,2.0,61,0.00,CLR,,0.00,WeatherDisplay:10.37,2013-03-17 20:10:00,
2013-03-17 16:15:00,30.4,19.3,30.27,NNE,16,3.5,3.5,63,0.00,CLR,,0.00,WeatherDisplay:10.37,2013-03-17 20:15:00,
2013-03-17 16:21:00,30.5,17.5,30.27,SW,236,3.5,3.5,58,0.00,CLR,,0.00,WeatherDisplay:10.37,2013-03-17 20:21:00,
2013-03-17 16:26:00,30.4,18.9,30.27,SW,216,2.3,2.3,62,0.00,CLR,,0.00,WeatherDisplay:10.37,2013-03-17 20:26:00,
2013-03-17 16:31:00,30.3,18.1,30.27,NE,43,2.3,2.3,60,0.00,CLR,,0.00,WeatherDisplay:10.37,2013-03-17 20:31:00,
2013-03-17 16:36:00,30.4,16.6,30.27,West,281,5.8,5.8,56,0.00,CLR,,0.00,WeatherDisplay:10.37,2013-03-17 20:36:00,
2013-03-17 16:41:00,29.8,16.8,30.27,WSW,258,4.0,4.0,58,0.00,CLR,,0.00,WeatherDisplay:10.37,2013-03-17 20:41:00,
2013-03-17 16:46:00,30.0,17.4,30.27,North,1,4.6,4.6,59,0.00,CLR,,0.00,WeatherDisplay:10.37,2013-03-17 20:46:00,
2013-03-17 16:51:00,30.0,17.0,30.27,West,280,3.5,3.5,58,0.00,CLR,,0.00,WeatherDisplay:10.37,2013-03-17 20:51:00,
2013-03-17 16:56:00,29.8,16.8,30.27,West,277,4.6,4.6,58,0.00,CLR,,0.00,WeatherDisplay:10.37,2013-03-17 20:56:00,
2013-03-17 17:01:00,29.7,17.9,30.28,ESE,121,1.1,1.1,61,0.00,CLR,,0.00,WeatherDisplay:10.37,2013-03-17 21:01:00,
2013-03-17 17:06:00,29.2,16.6,30.28,NW,325,3.0,3.0,59,0.00,CLR,,0.00,WeatherDisplay:10.37,2013-03-17 21:06:00,
2013-03-17 17:11:00,28.9,15.2,30.28,North,357,5.8,5.8,56,0.00,CLR,,0.00,WeatherDisplay:10.37,2013-03-17 21:11:00,
2013-03-17 17:16:00,28.4,14.3,30.28,WNW,284,5.8,5.8,55,0.00,CLR,,0.00,WeatherDisplay:10.37,2013-03-17 21:16:00,
2013-03-17 17:21:00,28.1,14.4,30.28,ENE,63,1.1,1.1,56,0.00,CLR,,0.00,WeatherDisplay:10.37,2013-03-17 21:21:00,
2013-03-17 17:26:00,28.3,14.6,30.28,West,262,6.0,6.0,56,0.00,CLR,,0.00,WeatherDisplay:10.37,2013-03-17 21:26:00,
2013-03-17 17:31:00,28.1,14.0,30.29,West,262,3.5,3.5,55,0.00,CLR,,0.00,WeatherDisplay:10.37,2013-03-17 21:31:00,
2013-03-17 17:36:00,28.1,14.4,30.29,WNW,302,3.5,3.5,56,0.00,CLR,,0.00,WeatherDisplay:10.37,2013-03-17 21:36:00,
2013-03-17 17:41:00,28.0,14.3,30.29,East,89,3.5,3.5,56,0.00,CLR,,0.00,WeatherDisplay:10.37,2013-03-17 21:41:00,
2013-03-17 17:46:00,27.9,14.6,30.29,NNW,328,2.0,2.0,57,0.00,CLR,,0.00,WeatherDisplay:10.37,2013-03-17 21:46:00,
2013-03-17 17:52:00,27.6,13.1,30.30,NW,312,2.3,2.3,54,0.00,CLR,,0.00,WeatherDisplay:10.37,2013-03-17 21:52:00,
2013-03-17 17:57:00,27.4,13.3,30.29,ENE,68,2.3,2.3,55,0.00,CLR,,0.00,WeatherDisplay:10.37,2013-03-17 21:57:00,
2013-03-17 18:02:00,27.3,14.1,30.29,NW,306,3.5,3.5,57,0.00,CLR,,0.00,WeatherDisplay:10.37,2013-03-17 22:02:00,
2013-03-17 18:07:00,27.1,12.6,30.30,WNW,283,3.5,3.5,54,0.00,CLR,,0.00,WeatherDisplay:10.37,2013-03-17 22:07:00,
2013-03-17 18:12:00,26.9,12.9,30.30,NE,36,3.5,3.5,55,0.00,CLR,,0.00,WeatherDisplay:10.37,2013-03-17 22:12:00,
2013-03-17 18:17:00,26.7,12.3,30.30,NNW,338,3.5,3.5,54,0.00,CLR,,0.00,WeatherDisplay:10.37,2013-03-17 22:17:00,
2013-03-17 18:22:00,26.6,13.4,30.30,West,274,7.0,7.0,57,0.00,CLR,,0.00,WeatherDisplay:10.37,2013-03-17 22:22:00,
2013-03-17 18:27:00,26.5,13.3,30.30,NW,304,7.0,7.0,57,0.00,CLR,,0.00,WeatherDisplay:10.37,2013-03-17 22:27:00,
2013-03-17 18:32:00,26.6,13.4,30.31,WNW,284,0.0,0.0,57,0.00,CLR,,0.00,WeatherDisplay:10.37,2013-03-17 22:32:00,
2013-03-17 18:37:00,26.5,13.3,30.31,North,355,1.1,1.1,57,0.00,CLR,,0.00,WeatherDisplay:10.37,2013-03-17 22:37:00,
2013-03-17 18:42:00,26.3,13.5,30.31,WNW,290,2.3,2.3,58,0.00,CLR,,0.00,WeatherDisplay:10.37,2013-03-17 22:42:00,
2013-03-17 18:47:00,26.1,13.3,30.31,West,260,2.3,2.3,58,0.00,CLR,,0.00,WeatherDisplay:10.37,2013-03-17 22:47:00,
2013-03-17 18:52:00,25.9,14.3,30.31,North,8,2.3,2.3,61,0.00,CLR,,0.00,WeatherDisplay:10.37,2013-03-17 22:52:00,
2013-03-17 18:57:00,25.7,14.1,30.32,West,259,1.1,1.1,61,0.00,CLR,,0.00,WeatherDisplay:10.37,2013-03-17 22:57:00,
2013-03-17 19:02:00,25.5,15.0,30.32,NNW,333,1.1,1.1,64,0.00,CLR,,0.00,WeatherDisplay:10.37,2013-03-17 23:02:00,
2013-03-17 19:07:00,25.2,14.7,30.32,North,352,0.0,0.0,64,0.00,CLR,,0.00,WeatherDisplay:10.37,2013-03-17 23:07:00,
2013-03-17 19:12:00,25.0,13.8,30.32,West,271,1.1,1.1,62,0.00,CLR,,0.00,WeatherDisplay:10.37,2013-03-17 23:12:00,
2013-03-17 19:18:00,24.9,13.7,30.32,West,259,2.3,2.3,62,0.00,CLR,,0.00,WeatherDisplay:10.37,2013-03-17 23:18:00,
2013-03-17 19:23:00,24.8,14.0,30.32,West,270,3.5,3.5,63,0.00,CLR,,0.00,WeatherDisplay:10.37,2013-03-17 23:23:00,
2013-03-17 19:28:00,24.7,13.9,30.33,WNW,297,0.0,0.0,63,0.00,CLR,,0.00,WeatherDisplay:10.37,2013-03-17 23:28:00,
2013-03-17 19:33:00,24.5,13.3,30.33,NW,304,0.0,0.0,62,0.00,CLR,,0.00,WeatherDisplay:10.37,2013-03-17 23:33:00,
2013-03-17 19:38:00,24.3,13.1,30.33,NW,304,0.0,0.0,62,0.00,CLR,,0.00,WeatherDisplay:10.37,2013-03-17 23:38:00,
2013-03-17 19:43:00,24.1,13.7,30.33,NW,304,0.0,0.0,64,0.00,CLR,,0.00,WeatherDisplay:10.37,2013-03-17 23:43:00,
2013-03-17 19:48:00,23.8,13.7,30.33,WSW,250,0.0,0.0,65,0.00,CLR,,0.00,WeatherDisplay:10.37,2013-03-17 23:48:00,
2013-03-17 19:53:00,23.5,13.8,30.33,WNW,285,0.0,0.0,66,0.00,CLR,,0.00,WeatherDisplay:10.37,2013-03-17 23:53:00,
2013-03-17 19:58:00,23.0,13.7,30.33,WNW,285,0.0,0.0,67,0.00,CLR,,0.00,WeatherDisplay:10.37,2013-03-17 23:58:00,
2013-03-17 20:03:00,22.6,13.6,30.33,WNW,285,0.0,0.0,68,0.00,CLR,,0.00,WeatherDisplay:10.37,2013-03-18 00:03:00,
2013-03-17 20:08:00,22.7,13.7,30.34,WNW,285,1.1,1.1,68,0.00,CLR,,0.00,WeatherDisplay:10.37,2013-03-18 00:08:00,
2013-03-17 20:13:00,22.7,13.7,30.34,WNW,285,0.0,0.0,68,0.00,CLR,,0.00,WeatherDisplay:10.37,2013-03-18 00:13:00,
2013-03-17 20:18:00,22.4,13.8,30.34,WNW,294,0.0,0.0,69,0.00,CLR,,0.00,WeatherDisplay:10.37,2013-03-18 00:18:00,
2013-03-17 20:23:00,22.3,13.3,30.34,WNW,294,0.0,0.0,68,0.00,CLR,,0.00,WeatherDisplay:10.37,2013-03-18 00:23:00,
2013-03-17 20:28:00,22.3,13.0,30.34,WNW,294,0.0,0.0,67,0.00,CLR,,0.00,WeatherDisplay:10.37,2013-03-18 00:28:00,
2013-03-17 20:33:00,22.3,13.3,30.34,WSW,257,0.0,0.0,68,0.00,CLR,,0.00,WeatherDisplay:10.37,2013-03-18 00:33:00,
2013-03-17 20:38:00,22.3,13.0,30.34,WSW,257,0.0,0.0,67,0.00,CLR,,0.00,WeatherDisplay:10.37,2013-03-18 00:38:00,
2013-03-17 20:43:00,22.1,12.8,30.34,WNW,286,1.1,0.0,67,0.00,CLR,,0.00,WeatherDisplay:10.37,2013-03-18 00:43:00,
2013-03-17 20:48:00,21.9,12.3,30.35,WNW,287,0.0,0.0,66,0.00,CLR,,0.00,WeatherDisplay:10.37,2013-03-18 00:48:00,
2013-03-17 20:53:00,21.7,12.8,30.35,WNW,287,0.0,0.0,68,0.00,CLR,,0.00,WeatherDisplay:10.37,2013-03-18 00:53:00,
2013-03-17 20:58:00,21.4,12.8,30.35,WNW,287,0.0,0.0,69,0.00,CLR,,0.00,WeatherDisplay:10.37,2013-03-18 00:58:00,
2013-03-17 21:03:00,20.9,12.6,30.35,WNW,287,0.0,0.0,70,0.00,CLR,,0.00,WeatherDisplay:10.37,2013-03-18 01:03:00,
2013-03-17 21:08:00,20.5,12.6,30.35,WNW,287,0.0,0.0,71,0.00,CLR,,0.00,WeatherDisplay:10.37,2013-03-18 01:08:00,
2013-03-17 21:13:00,20.1,11.9,30.35,WNW,287,0.0,0.0,70,0.00,CLR,,0.00,WeatherDisplay:10.37,2013-03-18 01:13:00,
2013-03-17 21:18:00,19.9,12.0,30.35,WNW,287,0.0,0.0,71,0.00,CLR,,0.00,WeatherDisplay:10.37,2013-03-18 01:18:00,
2013-03-17 21:23:00,19.9,12.0,30.35,WNW,286,0.0,0.0,71,0.00,CLR,,0.00,WeatherDisplay:10.37,2013-03-18 01:23:00,
2013-03-17 21:28:00,19.6,12.0,30.35,WNW,287,0.0,0.0,72,0.00,CLR,,0.00,WeatherDisplay:10.37,2013-03-18 01:28:00,
2013-03-17 21:33:00,19.6,12.3,30.35,WNW,288,0.0,0.0,73,0.00,CLR,,0.00,WeatherDisplay:10.37,2013-03-18 01:33:00,
2013-03-17 21:38:00,19.5,11.6,30.35,WNW,287,0.0,0.0,71,0.00,CLR,,0.00,WeatherDisplay:10.37,2013-03-18 01:38:00,
2013-03-17 21:43:00,19.7,11.8,30.35,WNW,288,0.0,0.0,71,0.00,CLR,,0.00,WeatherDisplay:10.37,2013-03-18 01:43:00,
2013-03-17 21:48:00,19.8,11.9,30.35,WNW,288,0.0,0.0,71,0.00,CLR,,0.00,WeatherDisplay:10.37,2013-03-18 01:48:00,
2013-03-17 21:53:00,19.9,11.4,30.35,WNW,288,0.0,0.0,69,0.00,CLR,,0.00,WeatherDisplay:10.37,2013-03-18 01:53:00,
2013-03-17 21:58:00,20.1,10.9,30.35,WNW,287,0.0,0.0,67,0.00,CLR,,0.00,WeatherDisplay:10.37,2013-03-18 01:58:00,
2013-03-17 22:03:00,20.2,11.0,30.35,WNW,287,0.0,0.0,67,0.00,,,0.00,WeatherDisplay:10.37,2013-03-18 02:03:00,
2013-03-17 22:08:00,20.0,12.1,30.35,WNW,288,0.0,0.0,71,0.00,,,0.00,WeatherDisplay:10.37,2013-03-18 02:08:00,
2013-03-17 22:13:00,19.6,12.3,30.35,WNW,287,0.0,0.0,73,0.00,,,0.00,WeatherDisplay:10.37,2013-03-18 02:13:00,
2013-03-17 22:19:00,19.2,12.0,30.35,WNW,288,0.0,0.0,73,0.00,,,0.00,WeatherDisplay:10.37,2013-03-18 02:19:00,
2013-03-17 22:24:00,18.7,11.8,30.36,WNW,288,0.0,0.0,74,0.00,,,0.00,WeatherDisplay:10.37,2013-03-18 02:24:00,
2013-03-17 22:29:00,18.3,11.7,30.36,WNW,288,0.0,0.0,75,0.00,,,0.00,WeatherDisplay:10.37,2013-03-18 02:29:00,
2013-03-17 22:34:00,18.0,11.4,30.36,WNW,288,0.0,0.0,75,0.00,,,0.00,WeatherDisplay:10.37,2013-03-18 02:34:00,
2013-03-17 22:39:00,17.7,11.4,30.36,WNW,288,0.0,0.0,76,0.00,,,0.00,WeatherDisplay:10.37,2013-03-18 02:39:00,
2013-03-17 22:44:00,17.5,11.5,30.37,WNW,289,0.0,0.0,77,0.00,,,0.00,WeatherDisplay:10.37,2013-03-18 02:44:00,
2013-03-17 22:49:00,17.5,11.8,30.36,WNW,288,0.0,0.0,78,0.00,,,0.00,WeatherDisplay:10.37,2013-03-18 02:49:00,
2013-03-17 22:54:00,17.4,11.7,30.36,WNW,288,0.0,0.0,78,0.00,,,0.00,WeatherDisplay:10.37,2013-03-18 02:54:00,
2013-03-17 22:59:00,17.2,11.8,30.36,WNW,288,0.0,0.0,79,0.00,,,0.00,WeatherDisplay:10.37,2013-03-18 02:59:00,
2013-03-17 23:04:00,17.2,12.1,30.36,WNW,288,0.0,0.0,80,0.00,,,0.00,WeatherDisplay:10.37,2013-03-18 03:04:00,
2013-03-17 23:09:00,17.2,12.1,30.37,WNW,288,0.0,0.0,80,0.00,,,0.00,WeatherDisplay:10.37,2013-03-18 03:09:00,
2013-03-17 23:14:00,17.2,11.8,30.37,WNW,287,0.0,0.0,79,0.00,,,0.00,WeatherDisplay:10.37,2013-03-18 03:14:00,
2013-03-17 23:19:00,17.1,11.4,30.37,WNW,288,0.0,0.0,78,0.00,,,0.00,WeatherDisplay:10.37,2013-03-18 03:19:00,
2013-03-17 23:24:00,16.9,11.5,30.37,WNW,288,0.0,0.0,79,0.00,,,0.00,WeatherDisplay:10.37,2013-03-18 03:24:00,
2013-03-17 23:29:00,16.7,11.6,30.37,WNW,287,0.0,0.0,80,0.00,,,0.00,WeatherDisplay:10.37,2013-03-18 03:29:00,
2013-03-17 23:34:00,16.5,11.7,30.37,WNW,288,0.0,0.0,81,0.00,,,0.00,WeatherDisplay:10.37,2013-03-18 03:34:00,
2013-03-17 23:39:00,16.4,11.9,30.37,WNW,288,0.0,0.0,82,0.00,,,0.00,WeatherDisplay:10.37,2013-03-18 03:39:00,
2013-03-17 23:44:00,16.6,12.3,30.37,WNW,288,0.0,0.0,83,0.00,,,0.00,WeatherDisplay:10.37,2013-03-18 03:44:00,
2013-03-17 23:49:00,16.7,12.4,30.37,WNW,287,0.0,0.0,83,0.00,,,0.00,WeatherDisplay:10.37,2013-03-18 03:49:00,
2013-03-17 23:54:00,16.3,11.8,30.38,WNW,288,0.0,0.0,82,0.00,,,0.00,WeatherDisplay:10.37,2013-03-18 03:54:00,
2013-03-17 23:59:00,16.3,11.8,30.38,WNW,288,0.0,0.0,82,0.00,,,0.00,WeatherDisplay:10.37,2013-03-18 03:59:00,